Fredericksburg, VA

4:13 AM EST on December 07, 2019 (GMT -0500)
Shannon

Weather History for KEZF - October, 2019

Change the Weather History Date:

Saturday, October 12, 2019

  Actual Average (KNYG) Record (KNYG)
Temperature  
Mean Temperature 62 °F -  
Max Temperature 76 °F 66 °F 84 °F (2010)
Min Temperature 48 °F 47 °F 37 °F (1996)
Degree Days  
Heating Degree Days 3    
Growing Degree Days 12 (Base 50)    
Moisture  
Dew Point 51 °F    
Average Humidity 75    
Maximum Humidity 100    
Minimum Humidity 37    
Precipitation  
Precipitation 0.00 in - - ()
Sea Level Pressure  
Sea Level Pressure 30.00 in    
Wind  
Wind Speed 1 mph ()    
Max Wind Speed 7 mph    
Max Gust Speed -    
Visibility 7.4 miles    
Events      
Averages and records for this station are not official NWS values.
T = Trace of Precipitation, MM = Missing Value Source: Averaged Metar Reports

Daily Weather History Graph

Daily Weather History Graph

Search for Another Location

Airport or City:

Astronomy

Oct. 12, 2019 Rise Set
Actual Time 7:15 AM EDT 6:36 PM EDT
Civil Twilight 6:48 AM EDT 7:03 PM EDT
Nautical Twilight 6:18 AM EDT 7:33 PM EDT
Astronomical Twilight 5:47 AM EDT 8:04 PM EDT
Moon 6:29 PM EDT (10/12) 5:53 AM EDT (10/12)
Length of Visible Light 12h 14m
Length of Day
11h 21m
Waxing Gibbous, 99% of the Moon is Illuminated
Oct 12
Waxing Gibbous
Oct 13
Full
Oct 21
Last Quarter
Oct 27
New
Nov 4
First Quarter

Hourly Weather History & Observations

Time (EDT) Temp. Dew Point Humidity Pressure Visibility Wind Dir Wind Speed Gust Speed Precip Events Conditions
12:15 AM 51.1 °F 49.6 °F 95% 30.05 in 10.0 mi Calm Calm - N/A   Clear
12:35 AM 50.4 °F 48.7 °F 94% 30.05 in 10.0 mi Calm Calm - N/A   Clear
12:55 AM 50.4 °F 49.8 °F 98% 30.05 in 10.0 mi Calm Calm - N/A   Clear
1:15 AM 50.2 °F 50.0 °F 99% 30.05 in 10.0 mi Calm Calm - N/A   Clear
1:55 AM 49.6 °F 49.5 °F 99% 30.04 in 10.0 mi Calm Calm - N/A   Clear
2:15 AM 49.3 °F 49.1 °F 99% 30.03 in 10.0 mi Calm Calm - N/A   Clear
2:35 AM 48.7 °F 48.4 °F 99% 30.02 in 10.0 mi Calm Calm - N/A   Clear
2:55 AM 48.4 °F 48.4 °F 100% 30.02 in 10.0 mi Calm Calm - N/A   Clear
3:15 AM 48.6 °F 48.6 °F 100% 30.02 in 1.0 mi Calm Calm - N/A   Mist
3:35 AM 48.7 °F 48.2 °F 98% 30.01 in 2.0 mi Calm Calm - N/A   Clear
3:55 AM 48.2 °F 47.8 °F 99% 30.00 in 5.0 mi Calm Calm - N/A   Clear
4:15 AM 48.4 °F 48.4 °F 100% 30.01 in 10.0 mi Calm Calm - N/A   Clear
4:35 AM 49.1 °F 49.1 °F 100% 30.01 in 1.5 mi Calm Calm - N/A   Mist
4:55 AM 49.3 °F 49.1 °F 99% 30.00 in 0.8 mi Calm Calm - N/A   Mist
5:15 AM 48.2 °F 48.2 °F 100% 30.01 in 1.8 mi Calm Calm - N/A   Mist
5:35 AM 48.6 °F 48.2 °F 99% 30.00 in 1.8 mi Calm Calm - N/A   Mist
5:55 AM 48.4 °F 48.4 °F 100% 30.00 in 1.5 mi Calm Calm - N/A   Mist
6:15 AM 48.2 °F 48.2 °F 100% 30.00 in 1.5 mi Calm Calm - N/A   Mist
6:35 AM 48.4 °F 48.4 °F 100% 30.00 in 1.0 mi Calm Calm - N/A   Mist
6:55 AM 48.6 °F 48.4 °F 99% 30.00 in 1.2 mi Calm Calm - N/A   Mist
7:15 AM 48.0 °F 48.0 °F 100% 30.01 in 2.5 mi Calm Calm - N/A   Clear
7:35 AM 48.4 °F 48.2 °F 99% 30.01 in 1.8 mi Calm Calm - N/A   Mist
7:55 AM 48.2 °F 48.2 °F 100% 30.01 in 0.8 mi Calm Calm - N/A   Mist
8:15 AM 48.6 °F 48.6 °F 100% 30.01 in 1.0 mi Calm Calm - N/A   Mostly Cloudy
8:35 AM 52.0 °F 50.7 °F 95% 30.01 in 1.8 mi Calm Calm - N/A   Overcast
8:55 AM 53.8 °F 51.6 °F 92% 30.01 in 1.0 mi Calm Calm - N/A   Overcast
9:15 AM 55.9 °F 52.7 °F 89% 30.00 in 5.0 mi Calm Calm - N/A   Overcast
9:35 AM 57.2 °F 52.9 °F 85% 30.00 in 1.5 mi Calm Calm - N/A   Overcast
9:55 AM 58.3 °F 53.4 °F 84% 30.00 in 0.8 mi Calm Calm - N/A   Haze
10:15 AM 61.9 °F 52.5 °F 71% 30.01 in 0.8 mi Calm Calm - N/A   Haze
10:35 AM 63.7 °F 52.2 °F 66% 30.00 in 2.5 mi Calm Calm - N/A   Haze
10:55 AM 66.4 °F 52.5 °F 61% 30.00 in 10.0 mi Calm Calm - N/A   Clear
11:15 AM 68.2 °F 50.9 °F 54% 29.99 in 10.0 mi Calm Calm - N/A   Clear
11:35 AM 70.9 °F 47.8 °F 44% 29.99 in 10.0 mi SSW 4.6 mph - N/A   Clear
11:55 AM 71.4 °F 48.6 °F 44% 29.99 in 10.0 mi WSW 4.6 mph - N/A   Clear
12:15 PM 73.4 °F 47.3 °F 39% 29.98 in 10.0 mi SSW 5.8 mph - N/A   Clear
12:35 PM 73.4 °F 47.7 °F 40% 29.98 in 10.0 mi WSW 5.8 mph - N/A   Mostly Cloudy
12:55 PM 73.8 °F 48.6 °F 41% 29.97 in 10.0 mi WSW 3.5 mph - N/A   Overcast
1:15 PM 74.7 °F 47.1 °F 38% 29.96 in 10.0 mi SSW 4.6 mph - N/A   Scattered Clouds
1:35 PM 74.5 °F 47.3 °F 38% 29.96 in 10.0 mi SW 3.5 mph - N/A   Mostly Cloudy
1:55 PM 76.5 °F 48.4 °F 37% 29.95 in 10.0 mi WSW 4.6 mph - N/A   Mostly Cloudy
2:15 PM 75.2 °F 48.0 °F 38% 29.95 in 10.0 mi South 6.9 mph - N/A   Mostly Cloudy
2:35 PM 75.0 °F 48.7 °F 39% 29.95 in 10.0 mi SW 6.9 mph - N/A   Overcast
2:55 PM 74.5 °F 48.7 °F 40% 29.95 in 10.0 mi SW 4.6 mph - N/A   Overcast
3:15 PM 73.8 °F 50.0 °F 43% 29.95 in 10.0 mi WSW 4.6 mph - N/A   Overcast
3:35 PM 73.0 °F 50.4 °F 45% 29.95 in 10.0 mi WNW 3.5 mph - N/A   Overcast
3:55 PM 72.9 °F 52.0 °F 48% 29.96 in 10.0 mi NNW 5.8 mph - N/A   Overcast
4:15 PM 72.5 °F 52.2 °F 49% 29.96 in 10.0 mi NW 3.5 mph - N/A   Overcast
4:35 PM 72.3 °F 51.3 °F 47% 29.96 in 10.0 mi North 6.9 mph - N/A   Overcast
4:55 PM 71.8 °F 50.7 °F 47% 29.97 in 10.0 mi NNW 6.9 mph - N/A   Mostly Cloudy
5:15 PM 72.7 °F 52.2 °F 48% 29.97 in 10.0 mi NNW 6.9 mph - N/A   Scattered Clouds
5:35 PM 71.6 °F 52.0 °F 50% 29.98 in 10.0 mi Calm Calm - N/A   Scattered Clouds
6:15 PM 69.8 °F 52.7 °F 54% 29.98 in 10.0 mi NNE 3.5 mph - N/A   Mostly Cloudy
6:35 PM 69.3 °F 53.8 °F 58% 29.99 in 10.0 mi Calm Calm - N/A   Overcast
6:55 PM 66.4 °F 54.5 °F 66% 29.99 in 10.0 mi Calm Calm - N/A   Overcast
7:15 PM 65.3 °F 54.9 °F 69% 30.00 in 10.0 mi Calm Calm - N/A   Overcast
7:35 PM 65.3 °F 55.0 °F 69% 30.01 in 10.0 mi Calm Calm - N/A   Mostly Cloudy
7:55 PM 63.5 °F 55.0 °F 74% 30.01 in 10.0 mi Calm Calm - N/A   Mostly Cloudy
8:15 PM 62.8 °F 54.7 °F 75% 30.01 in 10.0 mi Calm Calm - N/A   Mostly Cloudy
8:35 PM 62.6 °F 55.2 °F 77% 30.02 in 10.0 mi Calm Calm - N/A   Overcast
8:55 PM 61.9 °F 54.9 °F 78% 30.02 in 10.0 mi Calm Calm - N/A   Mostly Cloudy
9:15 PM 60.6 °F 54.9 °F 81% 30.03 in 10.0 mi Calm Calm - N/A   Clear
9:35 PM 60.1 °F 55.0 °F 83% 30.03 in 10.0 mi Calm Calm - N/A   Clear
9:55 PM 59.5 °F 55.0 °F 85% 30.04 in 10.0 mi Calm Calm - N/A   Mostly Cloudy
10:15 PM 58.5 °F 54.5 °F 87% 30.04 in 10.0 mi Calm Calm - N/A   Mostly Cloudy
10:35 PM 58.5 °F 55.2 °F 89% 30.04 in 10.0 mi Calm Calm - N/A   Scattered Clouds
10:55 PM 58.6 °F 55.0 °F 88% 30.04 in 10.0 mi Calm Calm - N/A   Clear
11:15 PM 59.9 °F 52.2 °F 76% 30.04 in 10.0 mi North 3.5 mph - N/A   Clear
11:35 PM 59.9 °F 50.2 °F 70% 30.05 in 10.0 mi Calm Calm - N/A   Scattered Clouds